Location: Pasarilla del Rebollar
(40.6790°N, 5.0062°W)
Time: 10:36:06
(UTC+00:00)

Meteor 1-14 Rocket - Pass Details

Date: 22 April 2026
Orbit: 832 x 918 km, 81.3° (Epoch: 15 May)

Event Time Altitude Azimuth Distance (km) Brightness Sun altitude
Rises 03:07:14 0° 344° (NNW) 3,472 7.8 -24.3°
Reaches altitude 10° 03:09:47 10° 338° (NNW) 2,516 6.9 -24.0°
Enters shadow 03:15:09 46° 268° (W) 1,134 4.5 -23.2°
